Terug naar catalogus

CZ-3B R/B

ActiefHEO
NORAD 42663·ROCKET BODY·🇨🇳 China

Gelanceerd Apr 12, 2017 vanaf Xichang Satellite Launch Center

Loading…

Volgende Passages (komende 24 uur)

TLE

VersSource: Space-Track

Epoch: Sep 14, 2026, 19:14 UTC

1 42663U 17018B   26257.80148537  .00010910  00000-0  98160-3 0  9994
2 42663  20.6479  14.0757 6722897 234.9612  42.8753  3.03954984 81578

Volg CZ-3B R/B in realtime met AllMySat

Download on the App Store